Location: Henham
(51.9333°N, 0.2500°E)
Time: 11:55:26
(UTC+00:00)

BREEZE-M DEB (TANK) - Pass Details

Date: 23 October 2019
Orbit: 326 x 16606 km, 49.4° (Epoch: 14 November)

Event Time Altitude Azimuth Distance (km) Brightness Sun altitude
Rises 18:09:37 0° 230° (SW) 8,008 9.1 -13.1°
Reaches altitude 10° 18:17:20 10° 225° (SW) 4,909 7.8 -14.2°
Maximum altitude 18:26:17 35° 165° (SSE) 1,344 4.1 -15.6°
Enters shadow 18:28:04 24° 118° (ESE) 1,339 3.8 -15.9°
